Retour au catalogue

STARLINK-31026

ActifCommunicationsVLEO
NORAD 58508·PAYLOAD·🇺🇸 United States

Lancé Dec 7, 2023 depuis Cape Canaveral Space Force Station

Loading…

Prochains Passages (prochaines 24 heures)

TLE

FraisSource: CelesTrak SupGP

Époque: Sep 14, 2026, 20:51 UTC

1 58508C 23191A   26257.86923611 -.00041566  00000+0 -15055-2 0  2578
2 58508  43.0024 122.0519 0001321 270.8528  20.0386 15.27599029    19

Suivez STARLINK-31026 en temps réel avec AllMySat

Download on the App Store